[[{"header":{"parameterUnit":"m.s-1","parameterCategory":1,"la1":30.2992,"la2":30.254,"lo1":-89.0895,"lo2":-89.0443,"dy":0.0025,"dx":0.0025,"nx":19,"ny":19,"refTime":"2026-04-11T21:00:00:Z","depth":0,"parameterNumber":2,"parameterNumberName":"U-component_of_WINDS"},"data":[0,0,0,-3.9776,-3.978,-3.9974,-3.9975,-4.0224,-4.0226,0,0,0,0,0,0,0,0,0,0,0,-3.9718,-3.972,-3.9775,-3.978,-3.9974,-3.9975,-4.0224,-4.0226,0,0,0,0,0,0,0,0,0,0,0,-3.9718,-3.972,-3.9722,-3.9781,-3.9974,-3.9975,-4.0223,-4.0077,0,0,0,0,0,0,0,0,0,0,-3.9888,-3.9835,-3.9719,-3.9722,-3.9782,-3.9974,-3.9975,-4.0069,-4.0086,-4.0137,0,-4.0182,0,-4.0208,-4.0243,-4.0244,0,0,0,-3.978,-3.9821,-3.9874,-3.9722,-3.9784,-3.9973,-3.9886,-4.0079,-4.0097,-4.0158,-4.0185,-4.0195,-4.0212,-4.0245,-4.0246,-4.054,-4.0541,0,0,-3.9769,-3.9753,-3.9861,-3.9886,-3.9855,-3.988,-3.9892,-4.009,-4.0118,-4.0186,-4.02,-4.0216,-4.0246,-4.0248,-4.0539,-4.054,0,0,0,-3.9739,-3.9746,-3.9793,-3.9875,-3.991,-3.9886,-3.99,-4.0109,-4.0126,-4.0203,-4.0219,-4.0248,-4.0251,-4.0537,-4.0539,-4.0589,0,0,0,-3.9732,-3.9728,-3.9789,-3.9781,-3.9907,-4.0012,-3.9915,-4.0112,-4.0135,-4.0218,-4.0248,-4.0253,-4.0536,-4.0538,-4.0585,-4.0614,0,0,0,-3.9706,-3.9725,-3.9753,-3.9779,-3.9862,-4.0009,-4.0037,-4.0118,-4.0145,-4.0244,-4.0254,-4.0535,-4.0538,-4.058,-4.0607,-4.0685,0,0,0,-3.9673,-3.9795,-3.9753,-3.9897,-3.986,-4.004,-4.0036,-4.0171,-4.0262,-4.0249,-4.0536,-4.0539,-4.0579,-4.0603,-4.068,-4.0744,-4.077,0,0,-3.9818,-3.9812,-3.9898,-3.9867,-4.0048,-4.0011,-4.0202,-4.0301,-4.0326,-4.0467,-4.0475,-4.0586,-4.0607,-4.0684,-4.0928,-4.0948,0,0,0,-3.9939,-4.0,-4.0052,-4.0138,-4.0217,-4.0287,-4.0359,-4.0397,-4.0518,-4.0395,-4.0638,-4.0651,-4.0696,-4.0727,-4.0745,-4.0784,-4.0554,-4.0554,-4.0553,-4.0117,-4.0144,-4.0287,-4.0337,-4.0422,-4.0496,-4.0566,-4.0629,-4.0631,-4.0689,-4.0729,-4.0874,-4.091,-4.0923,-4.0963,-4.0768,-4.0769,-4.0769,-4.0769,-4.033,-4.0419,-4.0421,-4.056,-4.0588,-4.0706,-4.0784,-4.0782,-4.0896,-4.0845,-4.0887,-4.0825,-4.0944,-4.0981,-4.0773,-4.0772,-4.0772,-4.0771,-4.0771,-4.0446,-4.0493,-4.0538,-4.0666,-4.0762,-4.0811,-4.092,-4.0943,-4.0965,-4.1006,-4.105,-4.1049,-4.1048,-4.1027,-4.1027,-4.1028,-4.1028,-4.1029,-4.1029,-4.0546,-4.0595,-4.0684,-4.0781,-4.084,-4.092,-4.1,-4.1059,-4.113,-4.1138,-4.1138,-4.1132,-4.0953,-4.0904,-4.1037,-4.1035,-4.1034,-4.1034,-4.1033,-4.0743,-4.0703,-4.084,-4.0899,-4.1015,-4.1109,-4.1139,-4.1258,-4.1311,-4.1364,-4.1353,-4.1217,-4.1212,-4.1198,-4.1158,-4.1348,-4.1348,-4.1348,-4.1348,-4.0837,-4.0839,-4.0984,-4.1077,-4.1172,-4.1213,-4.1368,-4.1433,-4.1493,-4.1527,-4.1505,-4.1455,-4.1441,-4.1444,-4.1425,-4.1388,-4.1632,-4.1632,-4.1632,-4.0959,-4.0971,-4.1096,-4.1155,-4.1249,-4.1329,-4.1474,-4.1582,-4.1643,-4.1644,-4.1554,-4.1542,-4.1463,-4.1436,-4.1428,-4.1399,-4.1331,0,0]},{"header":{"parameterUnit":"m.s-1","parameterCategory":1,"la1":30.2992,"la2":30.254,"lo1":-89.0895,"lo2":-89.0443,"dy":0.0025,"dx":0.0025,"nx":19,"ny":19,"refTime":"2026-04-11T21:00:00:Z","depth":0,"parameterNumber":3,"parameterNumberName":"V-component_of_WINDS"},"data":[0,0,0,3.2356,3.2356,3.2388,3.2388,3.2399,3.2399,0,0,0,0,0,0,0,0,0,0,0,3.233,3.233,3.2356,3.2356,3.2388,3.2388,3.2399,3.2399,0,0,0,0,0,0,0,0,0,0,0,3.233,3.233,3.2329,3.2356,3.2388,3.2388,3.2399,3.2385,0,0,0,0,0,0,0,0,0,0,3.236,3.2319,3.233,3.2329,3.2357,3.2388,3.2388,3.2385,3.2386,3.2372,0,3.2357,0,3.2378,3.2398,3.2397,0,0,0,3.2368,3.2318,3.2343,3.2329,3.2357,3.2387,3.2377,3.2386,3.2387,3.2374,3.2357,3.2358,3.2378,3.2397,3.2397,3.2284,3.2283,0,0,3.2367,3.2326,3.2342,3.2342,3.2337,3.2376,3.2378,3.2387,3.2366,3.2357,3.2359,3.2378,3.2397,3.2397,3.2285,3.2283,0,0,0,3.2354,3.2324,3.2349,3.2341,3.2349,3.2376,3.2379,3.2365,3.2377,3.236,3.2378,3.2397,3.2397,3.2286,3.2284,3.2192,0,0,0,3.2353,3.2317,3.2347,3.2323,3.2348,3.2358,3.2356,3.2376,3.2379,3.2378,3.2397,3.2397,3.2287,3.2285,3.2197,3.2153,0,0,0,3.2334,3.2315,3.2314,3.232,3.2333,3.2359,3.2371,3.2378,3.239,3.2397,3.2397,3.2288,3.2286,3.2202,3.2161,3.2112,0,0,0,3.23,3.2229,3.2312,3.2239,3.2332,3.2302,3.2372,3.2351,3.2346,3.2397,3.2287,3.2285,3.2203,3.2166,3.2117,3.2062,3.2036,0,0,3.2187,3.2213,3.2175,3.225,3.2195,3.2301,3.2232,3.2265,3.2302,3.2288,3.2285,3.2195,3.2162,3.2113,3.1907,3.1886,0,0,0,3.2125,3.2096,3.209,3.2086,3.2112,3.2131,3.218,3.2193,3.2183,3.2287,3.2166,3.2147,3.2121,3.2096,3.2078,3.2058,3.2272,3.2272,3.2273,3.1903,3.1958,3.1897,3.1955,3.195,3.2004,3.2005,3.2031,3.2085,3.2056,3.2051,3.192,3.189,3.1877,3.1855,3.2028,3.2028,3.2027,3.2027,3.1741,3.1709,3.1787,3.1755,3.1813,3.1787,3.1837,3.1877,3.1861,3.1927,3.1906,3.1972,3.1852,3.1836,3.2021,3.2022,3.2023,3.2023,3.2024,3.1601,3.1595,3.1615,3.1617,3.1612,3.1674,3.1656,3.171,3.1759,3.1739,3.174,3.1741,3.1749,3.1736,3.1735,3.1735,3.1735,3.1734,3.1734,3.1446,3.1472,3.1451,3.1476,3.1482,3.1496,3.1553,3.1559,3.1581,3.1621,3.1621,3.1677,3.1831,3.1868,3.1727,3.1728,3.1729,3.173,3.173,3.1259,3.1311,3.1278,3.1284,3.132,3.1312,3.1382,3.1393,3.1406,3.1396,3.1459,3.1565,3.1594,3.1609,3.164,3.1448,3.1448,3.1448,3.1448,3.1139,3.1161,3.1141,3.1148,3.1161,3.1223,3.1184,3.1229,3.1282,3.1294,3.133,3.1377,3.1389,3.1411,3.143,3.146,3.1226,3.1226,3.1226,3.1026,3.1053,3.101,3.1065,3.1098,3.1124,3.1091,3.1095,3.1166,3.1218,3.1305,3.1314,3.1389,3.1411,3.146,3.1488,3.1543,0,0]}]]